Hourly Data Report for August 19, 2020

OTTAWA INTL A
ONTARIO
Current Station Operator: NAVCAN

45°19'00.000" N
75°40'00.000" W
114.90 m
6106001
71628
YOW

Download Data

Hourly Data (August 2020)
Hourly Data Report for August 19, 2020
TIME
LST
Temp Definition
°C
Dew Point Definition
°C
Rel Hum Definition
%
Precip. Amount Definition
mm

Wind Dir Definition
10's deg

Wind Spd Definition
km/h
Visibility Definition
km
Stn Press Definition
kPa
Hmdx Definition


Wind Chill Definition


Weather Definition


00:00 12.7 10.6 87   25 10 24.1 99.94     LegendNANA
01:00 13.8 11.9 88   29 13 24.1 99.94     Mainly Clear
02:00 12.9 11.8 93   25 5 24.1 99.95     LegendNANA
03:00 13.9 12.7 92   32 12 24.1 99.93     LegendNANA
04:00 11.7 11.2 97   26 8 24.1 99.97     Mostly Cloudy
05:00 12.4 11.9 97   29 10 24.1 100.01     LegendNANA
06:00 12.8 12.1 96   30 5 24.1 100.05     LegendNANA
07:00 14.6 12.1 85   31 17 24.1 100.14     Mainly Clear
08:00 16.0 11.5 74   33 14 24.1 100.18     LegendNANA
09:00 17.9 11.6 66   30 18 24.1 100.20     LegendNANA
10:00 17.2 11.5 69   30 16 24.1 100.22     Mostly Cloudy
11:00 17.9 11.0 63   28 20 24.1 100.22     LegendNANA
12:00 19.5 11.1 58   28 22 24.1 100.22     LegendNANA
13:00 19.8 9.8 52   28 23 24.1 100.24     Mostly Cloudy
14:00 21.3 10.3 49   31 21 24.1 100.20     LegendNANA
15:00 21.0 9.9 49   29 24 24.1 100.18     LegendNANA
16:00 20.4 9.8 50   28 24 24.1 100.15     Mainly Clear
17:00 19.9 8.8 48   28 24 24.1 100.16     LegendNANA
18:00 18.8 8.9 52   30 19 24.1 100.20     LegendNANA
19:00 16.9 9.1 60   31 16 24.1 100.25     Clear
20:00 15.2 9.5 69   32 13 24.1 100.29     LegendNANA
21:00 15.2 9.4 68   27 5 24.1 100.31     LegendNANA
22:00 13.9 10.0 77   24 8 24.1 100.33     Clear
23:00 10.7 9.4 92   19 5 24.1 100.33     LegendNANA

Notes on Data Quality.

Legend

  • E = Estimated
  • M = Missing
  • NA = Not Available*
  • [empty] = Indicates an unobserved value
Date modified: